Regional Weather Roundup
Issued by NWS

Home | Current Version | Previous Version | Graphics & Text | Print | Product List | Glossary On
Versions: 1 2 3 4 5 6 7 8 9 10 11 12 13 14 15 16 17 18 19 20 21 22 23 24 25 26 27 28
000
ASUS45 KCYS 180610
RWRWY

WYOMING REGIONAL WEATHER ROUNDUP
NATIONAL WEATHER SERVICE CHEYENNE WY
1100 PM MST TUE JAN 17 2017

NOTE:  "FAIR" INDICATES FEW OR NO CLOUDS BELOW 12,000 FEET
WITH NO SIGNIFICANT WEATHER AND/OR OBSTRUCTIONS TO VISIBILITY.

WYZ001-180700-
YELLOWSTONE NATIONAL PARK

CITY           SKY/WX    TMP DP  RH WIND       PRES   REMARKS
LK YELLOWSTONE   N/A     -2  -5  87 NW3       30.13F
6HR MIN TEMP:  -3; 6HR MAX TEMP:   9;

W YELLOWSTONE  NOT AVBL

$$
WYZ002>013-054>058-071-098>099-180700-
NORTHERN WYOMING

CITY           SKY/WX    TMP DP  RH WIND       PRES   REMARKS
JACKSON        FAIR      -8  -9  92 NE7       30.18R WCI -22
CODY           FAIR      15   8  73 CALM      29.94R
GREYBULL       FAIR      -4  -9  79 NW7       29.98R WCI -18
6HR MIN TEMP:  -4; 6HR MAX TEMP:   8;

WORLAND        FAIR       4   1  88 CALM      29.94S
6HR MIN TEMP:   4; 6HR MAX TEMP:  16;

SHERIDAN       FAIR      19  13  77 S3        29.88R
6HR MIN TEMP:  15; 6HR MAX TEMP:  28;

BUFFALO        FAIR      34  19  54 CALM      29.89S
6HR MIN TEMP:  33; 6HR MAX TEMP:  45;

GILLETTE       FAIR      35  19  52 SW16      29.89R WCI  25
6HR MIN TEMP:  35; 6HR MAX TEMP:  39;

HULETT         FAIR      30  18  59 W7        29.89S WCI  23
NEWCASTLE      FAIR      28  14  54 CALM      29.94S

$$
WYZ014>020-022>026-101>103-180700-
CENTRAL WYOMING

CITY           SKY/WX    TMP DP  RH WIND       PRES   REMARKS
BIG PINEY      FAIR     -11 -14  86 CALM      30.15S
6HR MIN TEMP: -13; 6HR MAX TEMP:  -1;

PINEDALE       FAIR      -9 -15  77 NW6       30.14S WCI -23
DUBOIS         NOT AVBL
LANDER         FAIR      10   6  84 CALM      30.04S
6HR MIN TEMP:  10; 6HR MAX TEMP:  16;

RIVERTON       FAIR       6   0  76 CALM      30.05F
6HR MIN TEMP:   2; 6HR MAX TEMP:  12;

CASPER         FAIR      30   9  41 SW23G39   29.98F WCI  17
6HR MIN TEMP:  30; 6HR MAX TEMP:  32;

DOUGLAS        FAIR      24  13  62 CALM      29.97S
6HR MIN TEMP:  24; 6HR MAX TEMP:  39;


$$
WYZ021-027>030-104>119-180700-
SOUTHERN WYOMING

CITY           SKY/WX    TMP DP  RH WIND       PRES   REMARKS
EVANSTON       FAIR      16   6  65 S9        30.13R WCI   4
6HR MIN TEMP:  14; 6HR MAX TEMP:  20;

ROCK SPRINGS   FAIR       0  -5  79 W7        30.14R WCI -13
6HR MIN TEMP:  -2; 6HR MAX TEMP:   7;

RAWLINS        FAIR       5   0  79 CALM      30.11F
6HR MIN TEMP:   4; 6HR MAX TEMP:  20;

LARAMIE        FAIR       3  -1  83 CALM      30.05F FOG
6HR MIN TEMP:   1; 6HR MAX TEMP:  17;

CHEYENNE       FAIR      25  12  58 W10       29.99S WCI  15
6HR MIN TEMP:  24; 6HR MAX TEMP:  42;

TORRINGTON     FAIR      28  13  53 CALM      29.96S
6HR MIN TEMP:  28; 6HR MAX TEMP:  42;


$$




USA.gov is the U.S. government's official web portal to all federal, state and local government web resources and services.